Regional Weather Roundup
Issued by NWS Jackson, KY

Home | Current Version | Previous Version | Graphics & Text | Print | Product List | Glossary On
Versions: 1 2 3 4 5 6 7 8 9 10 11 12 13 14 15 16 17 18 19 20 21 22 23 24 25 26 27 28 29 30 31 32 33 34 35 36 37 38 39 40 41 42 43 44 45 46 47 48 49 50
759
ASUS43 KJKL 252310
RWRJKL

EAST KENTUCKY HOURLY WEATHER ROUNDUP
NATIONAL WEATHER SERVICE JACKSON KY
700 PM EDT MON JUL 25 2016

NOTE: "FAIR" INDICATES FEW OR NO CLOUDS BELOW 12,000 FEET WITH
NO SIGNIFICANT WEATHER AND/OR OBSTRUCTIONS TO VISIBILITY.

* THESE REPORTS ARE NOT UNDER NWS QUALITY CONTROL AND MAY NOT
  REPORT WEATHER SUCH AS PRECIPITATION AND FOG.

KYZ079-080-083-085-087-088-110-112-115-119-120-260000
...EASTERN KENTUCKY...

CITY           SKY/WX    TMP DP  RH WIND       PRES   REMARKS
JACKSON        CLOUDY    77  73  87 CALM      30.02F
LONDON         PTSUNNY   86  73  65 N8        30.01S HX  93
SOMERSET*      CLOUDY    86  70  58 CALM      29.99F HX  90
MONTICELLO*    CLOUDY   N/A N/A N/A VRB6G18   30.01S
WILLIAMSBURG*  MOCLDY    86  75  70 NW7       30.01S HX  95
MIDDLESBORO*   MOSUNNY   85  74  69 NE5       30.01F HX  93
HARLAN APT*      N/A     81  68  65 CALM      30.05R
PIKE CO APT*     N/A     77  72  85 CALM      30.05R
BIG SANDY APT* CLOUDY    81  73  75 SW3       30.03S
MOREHEAD APT*  CLOUDY    77  73  88 CALM      30.02S
ASHLAND*       CLOUDY    84  75  74 NW7       29.96R HX  92
$$

KYZ035-036-041-042-044-050-067-078-099-260000
...CENTRAL KENTUCKY...

CITY           SKY/WX    TMP DP  RH WIND       PRES   REMARKS
MT STERLING*   CLOUDY    81  75  83 CALM      30.02S
FLEMING/MASON* CLOUDY    79  73  81 CALM      30.02S
DANVILLE*      RAIN      75  72  88 NW6       30.04R
RICHMOND*      MOSUNNY   82  73  74 W3        30.01S
LEXINGTON      CLOUDY    81  70  69 W7        30.01R
FRANKFORT      CLOUDY    78  70  76 SW7       30.00R
LOUISVILLE     CLOUDY    80  74  81 SW5       29.98R
LEBANON*         N/A     77  73  88 CALM      30.02F
GLASGOW*       CLOUDY    81  73  77 N6        30.01R
BOWLING GREEN  CLOUDY    81  72  74 NW12G17   30.01R THUNDER
$$

KYZ091>093-OHZ055-061-077-WVZ005-015-034-035-042-260000
...SOUTHERN OHIO/WEST VIRGINIA...

CITY           SKY/WX    TMP DP  RH WIND       PRES   REMARKS
COVINGTON      CLOUDY    85  76  74 S5        29.97F HX  94
COLUMBUS       PTSUNNY   88  66  48 W8        29.94R HX  90
DAYTON         PTSUNNY   87  70  56 W9        29.98S HX  92
WILMINGTON     MOSUNNY   90  66  45 NW7       29.97S HX  92
HUNTINGTON       N/A     83  74  74 W7        29.98R
CHARLESTON     PTSUNNY   89  74  60 W5        29.97S HX  98
PINEVILLE*       N/A     83  74  76 MISG      30.09R
BECKLEY          N/A     83  69  62 W7        30.08R
BLUEFIELD        N/A     82  69  64 W5        30.12R
LOGAN CO APT*    N/A     79  72  78 SW5G12    30.02S
$$

VAZ002-007-008-TNZ017-027-036-066-071-260000
...SOUTHWEST VIRGINIA/EAST TENNESSEE...

CITY           SKY/WX    TMP DP  RH WIND       PRES   REMARKS
WISE*            N/A     77  63  61 NW8       30.13R
JONESVILLE*      N/A     77  73  88 S3        30.05R
ABINGDON*        N/A     91  66  42 NW5       30.04F HX  94
BRISTOL        LGT RAIN  88  72  58 W5        30.01R HX  94
MORRISTOWN*    PTCLDY    90  70  51 VRB3      30.00F HX  95
SEVIERVILLE*   CLEAR     88  72  58 CALM      29.97F HX  94
KNOXVILLE      CLOUDY    94  69  44 W10       29.97S HX  99
OAK RIDGE      SUNNY     94  68  42 W6        29.99F HX  98
CROSSVILLE     SUNNY     87  67  51 NW6       30.06S HX  90
NASHVILLE      PTSUNNY   91  69  48 W5        29.97F HX  96
$$

...KEY TO REMARKS...
VSB - VISIBILITY IN MILES
WCI - WIND CHILL INDEX
HX  - HEAT INDEX

$$




USA.gov is the U.S. government's official web portal to all federal, state and local government web resources and services.